Lapse_Rate
5.1 4.9 4.9 5.1 5.0 5.0 4.9 5.8 5.9 5.7 5.6 5.6 6.1 6.6 6.8 7.0 7.0 7.0 7.2 7.2 7.1 5.8 5.6 5.5 6.0 5.7 5.7 5.7 5.9 6.2 6.3 6.3 6.6 6.4 6.9 6.8 6.8 6.6 6.5 6.4 6.1 6.0 6.0
5.1 5.0 5.0 5.1 5.1 5.0 5.6 6.0 5.8 5.5 5.1 5.1 5.7 6.4 6.6 6.9 7.1 7.1 7.1 7.3 6.7 5.7 5.6 5.9 6.0 5.9 6.0 6.0 6.2 6.4 6.4 6.4 6.6 6.5 6.8 6.7 6.7 6.6 6.5 6.4 6.3 6.2 6.2
5.2 5.3 5.2 5.1 5.1 5.3 5.9 6.0 5.6 5.3 5.2 5.0 5.4 6.0 6.3 6.7 6.9 7.1 6.9 6.6 5.8 6.0 6.3 6.5 6.2 6.1 6.2 6.3 6.4 6.5 6.4 6.6 6.7 6.7 6.6 6.6 6.6 6.5 6.3 6.3 6.4 6.4 6.4
5.3 5.2 5.2 5.1 5.2 5.5 5.9 5.8 5.4 5.2 5.4 5.2 5.3 5.6 6.0 6.4 6.1 6.3 6.1 6.0 5.8 5.9 6.1 6.2 6.3 6.3 6.4 6.3 6.3 6.3 6.3 6.4 6.5 6.7 6.5 6.4 6.4 6.4 6.5 6.5 6.4 6.4 6.5
5.3 5.4 5.3 5.2 5.4 5.5 5.8 5.6 5.4 5.2 5.4 5.4 5.5 5.7 5.7 6.1 6.3 6.0 5.5 5.6 5.7 6.0 6.0 6.3 6.4 6.4 6.3 6.3 6.2 6.2 6.2 6.3 6.5 6.5 6.4 6.5 6.5 6.6 6.7 6.6 6.6 6.2 6.1
5.6 5.5 5.5 5.3 5.3 5.5 5.5 5.5 5.4 5.3 5.6 5.4 5.7 5.9 5.7 5.8 6.1 6.2 6.3 6.1 6.1 6.1 6.2 6.2 6.3 6.3 6.2 6.2 6.2 6.2 6.2 6.3 6.4 6.4 6.4 6.7 6.7 6.8 6.7 6.7 6.5 6.1 6.2
5.6 5.5 5.4 5.4 5.3 5.4 5.5 5.4 5.5 5.4 5.6 5.8 5.9 6.2 6.1 5.9 6.0 6.1 6.1 6.3 6.3 6.2 6.2 6.2 6.1 6.3 6.3 6.2 6.1 6.1 6.0 6.1 6.2 6.2 6.1 6.4 6.6 6.6 6.6 6.6 6.3 6.1 6.1
5.4 5.5 5.3 5.4 5.4 5.4 5.4 5.5 5.4 5.4 5.5 5.9 6.0 6.3 6.4 6.5 6.3 6.2 6.3 6.3 6.3 6.2 6.2 6.2 6.1 6.1 6.1 6.0 5.8 5.7 5.7 6.0 6.2 6.0 5.7 6.0 6.2 6.4 6.3 5.9 6.3 6.3 6.2
5.2 5.4 5.4 5.4 5.5 5.4 5.4 5.4 5.5 5.5 5.7 5.9 6.1 6.1 6.4 6.5 6.4 6.3 6.2 6.3 6.2 6.2 6.1 6.1 6.2 6.1 6.0 6.0 5.7 5.7 5.9 5.9 5.9 6.0 6.0 5.9 6.1 6.1 5.7 5.6 5.9 6.1 6.2
4.9 5.2 5.4 5.4 5.4 5.5 5.4 5.4 5.6 5.6 5.9 6.1 6.3 6.5 6.7 6.8 6.5 6.4 6.1 6.1 6.0 6.1 6.2 6.1 6.0 6.1 6.1 5.9 6.0 6.0 6.1 6.0 6.0 5.8 5.5 5.5 5.8 5.8 5.9 5.8 5.7 6.0 6.0
4.5 4.8 5.3 5.3 5.4 5.4 5.4 5.4 5.6 5.6 5.9 6.2 6.4 6.6 7.0 7.0 7.0 6.6 6.2 6.1 5.9 6.0 6.1 5.9 5.1 5.6 5.7 6.0 6.2 6.2 6.0 5.9 6.1 6.1 6.1 6.0 6.1 6.1 6.2 6.1 6.0 6.3 6.0
4.5 4.7 4.9 5.0 5.3 5.4 5.4 5.3 5.5 5.8 5.8 6.1 6.5 6.6 6.7 6.9 7.0 6.8 6.4 6.3 6.0 6.1 5.9 6.0 5.9 5.9 5.9 5.9 6.1 6.0 6.0 6.0 6.1 6.2 6.2 6.1 6.2 6.2 6.1 6.2 6.2 6.1 6.1
4.6 4.7 4.8 4.9 5.0 5.2 5.4 5.3 5.5 5.6 5.9 6.0 6.3 6.6 6.6 6.4 6.5 6.7 6.6 6.3 6.1 6.1 6.0 5.9 6.1 6.0 6.0 6.0 5.9 6.0 5.8 5.8 5.8 5.9 5.9 5.8 6.0 6.2 6.2 6.3 6.3 6.3 6.2
4.7 4.5 4.6 4.9 4.8 5.1 5.3 5.3 5.4 5.6 5.6 5.9 6.1 6.4 6.6 6.4 6.2 6.3 6.5 6.6 6.3 6.3 6.2 6.0 5.9 6.1 6.0 5.9 5.9 5.9 5.7 5.6 5.7 5.7 5.8 5.6 5.8 6.0 6.0 6.0 6.2 6.2 5.8
4.8 4.8 4.6 4.7 4.8 4.8 5.1 5.3 5.4 5.5 5.6 5.7 5.9 6.2 6.3 6.4 6.2 6.1 6.2 6.3 6.4 6.3 6.4 6.3 6.2 6.0 6.1 6.0 6.0 6.0 5.9 5.8 6.1 5.8 5.9 5.9 5.7 5.8 5.9 6.0 6.0 5.8 6.0
5.1 5.1 4.9 5.2 5.0 4.9 5.0 5.1 5.3 5.4 5.4 5.5 5.6 5.9 6.2 6.2 6.2 6.2 6.0 6.1 6.1 6.2 6.3 6.3 6.2 6.0 6.1 6.0 6.0 5.9 6.1 5.9 6.3 6.1 6.0 5.9 5.6 5.7 5.9 6.3 6.1 6.5 6.8
5.1 5.2 5.1 5.3 5.5 5.6 5.5 5.4 4.9 5.3 5.2 5.4 5.4 5.4 5.8 6.1 6.0 6.0 6.1 5.9 6.0 6.2 6.4 6.4 6.4 6.2 6.1 6.0 5.9 5.6 5.8 6.3 6.3 6.1 6.2 6.1 5.9 5.7 5.7 6.3 6.4 6.3 6.2
5.4 5.4 5.7 5.9 5.9 6.0 5.8 5.4 5.3 5.3 5.0 5.2 5.1 5.2 5.2 5.6 5.9 5.6 5.8 6.0 6.1 6.2 6.2 6.3 6.4 6.4 6.0 6.0 5.8 6.0 5.6 6.1 6.5 6.3 6.4 6.3 6.2 6.1 6.3 6.4 6.2 6.0 6.0
5.7 5.8 5.8 5.6 5.7 5.9 5.7 6.0 5.5 5.4 5.4 5.0 5.1 5.0 5.2 5.1 5.2 5.7 5.7 5.8 6.0 6.1 6.1 6.1 6.1 6.3 6.3 5.8 5.9 6.0 6.0 6.0 6.2 6.3 6.5 6.6 6.5 6.4 6.3 6.2 6.1 6.1 6.0
5.3 5.0 5.2 5.5 5.6 5.5 5.5 5.4 5.9 5.9 5.7 5.5 5.5 5.2 5.1 5.0 5.0 5.1 5.7 5.8 5.6 5.9 6.0 6.1 6.1 6.1 6.3 6.2 6.0 6.0 5.9 5.6 6.0 6.2 6.5 6.5 6.6 6.3 6.1 6.0 6.1 6.0 6.1
5.0 5.0 5.0 4.8 4.8 5.0 5.2 5.4 5.7 5.5 5.7 5.8 5.8 5.7 5.6 5.4 5.1 5.0 5.0 5.3 5.5 5.8 5.8 6.0 6.1 6.1 6.2 6.3 6.1 6.0 5.9 5.9 5.9 6.0 6.0 6.1 6.2 6.3 6.1 6.1 6.1 6.0 6.0
3.9 3.9 4.1 4.4 4.7 5.0 4.9 5.2 5.1 5.3 5.3 5.4 5.7 5.7 5.6 5.3 5.3 5.4 5.3 5.1 5.6 5.6 5.8 5.8 6.0 6.1 6.2 6.3 6.4 6.2 6.0 6.1 6.1 6.4 6.0 6.0 6.0 6.0 6.1 6.2 6.1 6.2 6.0
3.1 3.0 3.0 3.0 3.1 3.2 3.6 4.0 4.5 4.9 5.0 5.0 5.5 5.4 5.6 5.7 5.4 5.5 5.3 5.3 5.2 5.8 5.5 5.6 6.0 6.2 6.1 6.3 6.3 6.4 6.1 6.2 6.2 6.3 6.3 6.1 6.0 6.0 6.0 6.1 6.2 6.1 5.9
2.4 2.3 2.4 2.5 2.8 3.1 3.1 3.3 3.5 3.8 4.3 4.7 5.0 5.5 5.4 5.6 5.7 5.9 6.0 5.6 5.3 5.3 5.4 5.3 5.5 6.2 6.3 6.3 6.3 6.5 6.5 6.1 6.1 6.1 6.0 6.1 6.0 5.9 5.9 5.9 6.0 6.1 6.0
2.7 3.0 3.1 3.2 3.4 3.6 3.7 3.6 3.7 3.7 3.9 4.1 4.4 4.8 5.6 5.0 5.1 5.4 5.7 5.8 5.5 5.7 5.4 5.0 5.0 5.7 6.3 6.3 6.2 6.3 6.4 6.2 5.8 6.0 5.9 5.9 5.9 5.8 5.9 5.6 5.9 6.0 6.1
3.7 4.1 4.3 4.4 4.4 4.3 4.2 3.9 3.8 3.6 3.5 3.4 3.5 4.0 4.5 5.0 5.1 5.4 5.6 5.7 5.9 5.9 6.2 5.6 5.2 5.5 5.9 6.3 6.5 6.5 6.0 6.2 5.9 5.8 6.0 6.0 5.7 5.8 5.8 5.9 5.9 5.8 6.0
Wind_Speed
6 5 4 4 5 4 5 6 5 5 7 7 7 9 10 9 7 6 7 7 7 6 5 5 7 5 4 4 4 4 6 6 7 3 3 2 3 3 3 4 7 8 10
6 4 5 5 4 5 6 5 5 7 7 7 7 8 9 10 7 6 7 6 7 5 6 6 6 5 6 6 4 6 6 7 5 8 3 3 4 3 3 3 4 7 7
5 5 5 5 5 6 6 5 6 6 7 7 6 7 8 9 8 5 5 7 5 5 6 7 8 6 7 5 5 5 5 4 5 3 3 3 3 2 2 2 2 3 6
5 6 5 5 6 6 5 5 6 6 7 7 6 7 7 8 7 1 3 5 6 6 6 7 8 8 9 7 5 6 5 4 3 3 3 3 3 3 2 2 2 1 3
7 4 6 6 4 4 5 6 7 7 7 7 6 6 6 6 4 5 5 5 6 6 6 7 8 11 14 9 3 5 5 4 3 3 3 2 2 2 3 2 3 2 3
7 6 6 4 6 6 6 7 7 7 7 6 6 6 7 4 9 10 9 6 6 5 7 7 5 4 4 3 4 6 6 5 4 3 2 4 4 3 3 4 3 2 2
7 6 6 6 6 7 6 6 7 7 5 7 7 6 6 7 10 10 12 5 6 6 6 4 2 2 3 2 3 3 4 8 7 5 4 5 3 4 3 4 3 3 2
7 7 6 7 7 7 6 7 7 5 6 6 7 7 6 6 11 10 10 6 5 5 5 4 2 1 2 4 4 4 2 3 2 3 4 5 5 4 4 4 5 4 3
8 7 7 7 7 7 7 8 7 5 5 5 5 7 6 7 10 10 9 5 3 4 4 3 2 2 5 6 3 2 3 3 3 1 1 4 7 7 5 5 4 6 4
10 9 7 8 8 8 8 7 5 4 5 5 6 5 7 7 9 9 8 4 2 3 3 2 2 1 3 7 1 3 3 1 1 2 2 3 4 5 7 2 5 5 5
9 7 7 7 9 8 6 4 5 6 5 6 6 5 6 6 6 8 7 3 1 1 0 1 1 2 3 6 2 3 1 3 3 2 2 3 4 4 3 4 4 5 3
7 7 8 7 7 6 7 7 6 6 6 6 5 5 4 5 4 5 6 6 3 2 3 2 3 5 2 3 2 4 2 1 2 1 1 1 2 3 2 4 4 4 5
7 8 8 7 7 7 6 7 5 4 5 5 4 4 5 4 4 4 6 7 4 3 3 5 7 6 4 4 5 7 1 2 1 0 1 1 1 3 4 4 4 10 10
8 10 8 7 7 7 5 5 5 5 5 5 5 5 4 4 4 3 2 3 4 2 4 3 3 5 4 3 4 3 1 1 2 1 2 2 3 2 2 2 4 3 5
9 11 8 6 8 8 7 7 6 7 6 5 5 5 5 5 5 6 6 3 1 1 5 1 1 1 3 2 2 2 1 1 1 2 2 3 4 3 2 3 2 2 4
10 9 7 7 7 7 7 8 11 14 12 14 13 8 5 9 6 9 8 8 6 2 2 2 2 2 3 2 3 3 2 4 2 3 3 3 3 3 3 2 2 2 4
13 11 5 4 5 6 7 8 9 7 14 14 15 15 13 11 14 11 10 8 7 4 3 3 3 4 4 4 4 3 3 4 4 4 3 4 4 3 4 3 2 2 2
14 16 11 10 7 8 9 10 8 9 8 7 10 12 17 17 14 15 12 7 3 4 3 4 5 5 4 4 3 3 2 3 4 4 4 4 5 4 3 3 3 3 2
11 10 11 9 9 12 10 10 10 10 10 9 5 4 13 16 14 7 12 5 7 7 7 7 6 5 5 5 4 4 4 3 3 4 4 5 4 4 3 4 4 5 5
11 17 12 10 10 10 10 10 11 12 11 10 9 10 4 6 6 8 9 9 8 9 8 8 8 7 7 6 5 4 4 4 4 4 4 5 5 4 4 5 5 4 5
8 10 16 10 11 11 11 11 12 10 11 13 12 11 11 10 10 10 11 12 12 11 11 10 9 9 8 7 6 5 6 5 5 5 4 5 5 5 5 5 5 5 4
7 8 10 10 11 11 12 11 11 11 13 14 13 14 19 9 11 10 11 12 13 13 12 11 10 10 10 10 8 7 8 7 5 5 5 5 5 5 5 5 5 4 4
7 10 10 10 11 16 12 12 12 12 12 12 13 14 13 11 12 12 12 12 12 12 12 11 11 10 10 10 10 10 9 8 7 6 6 5 5 5 5 5 4 4 5
7 8 9 9 9 11 12 13 13 18 17 15 15 10 12 15 13 13 15 13 12 13 13 13 12 15 12 11 10 10 9 7 7 8 10 8 6 6 5 3 5 6 4
7 8 8 8 9 10 13 13 15 17 16 16 15 13 14 13 15 15 13 16 14 13 15 14 13 16 18 18 16 15 13 15 12 12 8 9 10 9 6 5 5 4 4
8 9 9 9 9 11 12 13 14 16 15 17 17 17 16 13 14 16 15 14 16 14 17 13 16 22 21 17 18 16 12 14 11 15 8 9 9 8 6 6 8 4 5
Wind_Direction
165 179 183 231 253 277 275 281 302 305 309 312 312 312 306 296 284 276 275 268 268 269 271 256 253 232 240 231 212 210 224 212 238 274 235 261 274 267 292 237 238 234 245
189 191 222 244 262 270 271 289 311 314 309 304 302 302 298 293 285 283 290 284 282 279 268 262 262 263 247 234 215 220 217 207 202 244 231 245 237 246 240 241 243 241 236
199 216 252 271 284 285 270 298 309 304 300 300 300 297 298 291 284 299 288 304 297 296 279 272 263 252 259 241 223 224 217 205 205 209 253 237 258 271 293 262 256 255 244
222 234 258 274 274 247 263 287 293 294 290 294 305 291 291 289 282 235 295 301 302 290 284 276 271 256 246 236 224 223 208 201 187 209 238 248 236 246 220 231 278 261 272
240 258 269 267 246 239 265 275 282 283 283 292 298 307 299 302 295 324 304 283 285 293 287 282 272 254 247 228 213 229 197 196 187 205 231 234 232 195 199 207 219 233 242
250 262 271 251 216 241 260 265 274 282 293 296 314 306 298 285 295 299 313 303 297 285 296 302 316 58 86 114 195 185 180 176 187 179 208 221 239 225 197 196 177 163 210
248 255 260 206 221 248 257 264 269 277 286 292 296 301 299 294 287 295 305 292 285 280 274 289 303 58 74 47 7 299 241 225 198 182 211 221 240 215 186 174 180 175 183
252 252 240 202 226 250 257 256 264 264 273 283 285 288 295 292 291 298 310 292 282 281 272 278 210 69 4 343 311 288 310 329 223 198 229 247 252 274 226 191 163 124 129
252 243 234 209 224 237 250 259 262 251 277 273 268 292 300 297 297 313 336 298 340 20 61 93 128 193 316 328 290 64 29 23 67 134 277 287 267 251 193 135 139 142 129
246 243 230 216 217 230 238 257 261 236 263 283 286 278 298 299 303 321 336 299 70 57 38 24 208 188 0 0 184 147 128 2 110 79 71 23 33 82 107 93 139 139 125
243 242 238 230 221 225 242 236 256 270 280 287 283 283 292 283 309 346 337 291 6 29 78 80 248 264 1 29 25 170 148 173 111 82 45 42 57 59 68 85 90 138 120
232 243 248 236 223 227 222 256 254 253 276 283 290 301 287 283 310 338 337 305 289 224 240 246 235 230 340 1 329 328 337 137 102 36 303 9 88 94 81 95 102 108 101
229 246 243 240 232 222 223 242 261 236 254 274 258 275 285 289 279 300 316 330 334 229 263 244 259 245 321 332 347 333 25 141 232 352 31 40 118 127 128 81 62 92 104
239 247 241 228 238 229 223 228 236 245 250 254 249 251 261 275 266 253 291 332 358 44 350 334 268 260 264 272 323 349 351 177 183 139 114 99 84 61 74 76 96 89 102
263 264 248 223 230 239 231 229 221 230 203 228 236 214 223 253 243 214 190 216 188 9 319 230 293 299 305 315 297 270 182 149 152 142 133 106 104 101 69 102 98 88 113
300 283 271 271 249 227 234 258 231 233 229 226 233 194 222 239 209 190 212 195 202 205 196 238 213 225 242 264 273 267 193 176 181 170 146 133 138 143 119 98 93 105 123
1 340 319 305 289 273 280 265 256 252 235 233 229 225 211 204 221 213 194 206 208 194 214 217 222 218 239 256 257 249 206 171 160 183 166 156 144 147 148 161 147 143 125
360 353 351 337 333 307 289 275 259 260 252 247 226 208 222 223 214 209 169 160 214 213 234 225 217 217 228 228 228 244 233 177 175 171 183 175 164 150 167 176 163 152 137
347 345 345 332 338 335 323 303 280 266 257 259 255 201 224 219 215 170 167 194 218 228 216 224 229 214 214 229 225 203 229 231 165 174 189 172 177 172 167 183 210 194 158
337 336 340 339 339 337 335 336 338 318 279 259 249 249 203 117 186 201 204 209 211 227 228 221 220 220 214 208 219 211 205 201 242 185 190 197 181 183 186 189 192 170 200
339 342 346 342 341 338 334 335 325 324 318 319 280 254 223 214 218 205 205 210 215 216 222 222 221 217 213 211 210 205 208 197 196 214 202 190 175 186 192 198 203 197 168
338 349 349 344 339 334 327 319 316 315 317 317 312 312 315 240 236 222 215 212 211 213 214 215 216 214 211 205 200 200 199 210 206 184 197 216 188 187 170 185 179 184 176
330 340 337 339 338 334 330 325 317 309 304 298 296 305 307 304 302 260 230 222 215 207 210 210 211 213 212 207 199 196 194 200 205 190 184 195 197 182 178 172 169 157 166
310 326 327 322 327 330 329 326 321 317 307 304 294 288 290 293 294 293 288 246 223 217 205 205 207 204 205 205 206 202 197 197 188 192 180 181 198 186 163 160 173 188 169
307 307 308 310 316 321 323 325 325 316 308 300 287 294 287 285 286 282 277 279 238 222 217 204 202 203 200 198 202 202 198 191 188 186 180 176 182 183 188 175 165 174 159
305 309 303 302 309 314 315 313 313 311 303 298 288 281 276 273 282 271 270 272 269 228 223 214 206 198 196 197 198 195 191 193 188 182 172 178 178 179 176 186 188 175 170